Location: Charbonni�res
(45.9952°N, 2.9982°E)
Time: 17:56:05
(UTC+00:00)

Cosmos 2181 Rocket - Pass Details

Date: 29 November 2020
Orbit: 951 x 1015 km, 82.9° (Epoch: 17 January)

Event Time Altitude Azimuth Distance (km) Brightness Sun altitude
Rises 04:55:51 0° 348° (NNW) 3,685 6.8 -22.2°
Reaches altitude 10° 04:58:24 10° 346° (NNW) 2,724 6.1 -21.8°
Maximum altitude 05:04:31 63° 267° (W) 1,065 3.9 -20.7°
Drops below altitude 10° 05:10:33 10° 187° (S) 2,674 6.3 -19.7°
Sets 05:13:02 0° 184° (S) 3,612 7.1 -19.3°
